Hourly Weather Rusobino

Today, 16 April, Friday

Time Temperature Precipitation Wind Pressure Humidity
00:00 +5°C° 0 mm 5 mps 746 mmHg 86%
01:00 +5°C° 0 mm 5 mps 746 mmHg 87%
02:00 +5°C° 0 mm 5 mps 746 mmHg 87%
03:00 +5°C° 0 mm 5 mps 746 mmHg 88%
04:00 +5°C° 0 mm 5 mps 746 mmHg 88%
05:00 +3°C° 0 mm 5 mps 746 mmHg 89%
06:00 +5°C° 0 mm 5 mps 746 mmHg 87%
07:00 +5°C° 0 mm 5 mps 746 mmHg 85%
08:00 +6°C° 0 mm 5 mps 746 mmHg 83%
09:00 +7°C° 0 mm 5 mps 747 mmHg 80%
10:00 +8°C° 0 mm 5 mps 747 mmHg 77%
11:00 +9°C° 0 mm 5 mps 747 mmHg 74%
12:00 +10°C° 0 mm 5 mps 747 mmHg 71%
13:00 +12°C° 0 mm 5 mps 747 mmHg 68%
14:00 +12°C° 0 mm 5 mps 747 mmHg 64%
15:00 +12°C° 0 mm 5 mps 747 mmHg 65%
16:00 +12°C° 0 mm 5 mps 747 mmHg 66%
17:00 +12°C° 0 mm 5 mps 746 mmHg 67%
18:00 +10°C° 0 mm 5 mps 747 mmHg 70%
19:00 +10°C° 0 mm 5 mps 747 mmHg 72%
20:00 +9°C° 0 mm 5 mps 747 mmHg 75%
21:00 +9°C° 0 mm 5 mps 747 mmHg 76%
22:00 +8°C° 0 mm 5 mps 747 mmHg 78%
23:00 +8°C° 0 mm 5 mps 747 mmHg 80%

Tomorrow, 17 April, Saturday

Time Temperature Precipitation Wind Pressure Humidity
00:00 +7°C° 0 mm 5 mps 747 mmHg 81%
01:00 +7°C° 0 mm 5 mps 748 mmHg 81%
02:00 +7°C° 0 mm 4 mps 748 mmHg 82%
03:00 +6°C° 0 mm 4 mps 748 mmHg 82%
04:00 +6°C° 0 mm 4 mps 748 mmHg 82%
05:00 +5°C° 0 mm 4 mps 748 mmHg 82%
06:00 +6°C° 0 mm 4 mps 748 mmHg 81%
07:00 +6°C° 0 mm 4 mps 748 mmHg 80%
08:00 +6°C° 0 mm 4 mps 748 mmHg 79%
09:00 +8°C° 0 mm 4 mps 748 mmHg 74%
10:00 +9°C° 0 mm 5 mps 748 mmHg 69%
11:00 +10°C° 0 mm 5 mps 748 mmHg 64%
12:00 +12°C° 0 mm 5 mps 748 mmHg 61%
13:00 +13°C° 0 mm 5 mps 748 mmHg 58%
14:00 +14°C° 0 mm 6 mps 748 mmHg 55%
15:00 +14°C° 0 mm 6 mps 748 mmHg 55%
16:00 +13°C° 0 mm 6 mps 748 mmHg 56%
17:00 +13°C° 0 mm 5 mps 748 mmHg 57%
18:00 +10°C° 0 mm 5 mps 748 mmHg 56%
19:00 +9°C° 0 mm 5 mps 748 mmHg 56%
20:00 +8°C° 0 mm 5 mps 748 mmHg 56%
21:00 +7°C° 0 mm 5 mps 748 mmHg 58%
22:00 +7°C° 0 mm 5 mps 748 mmHg 59%
23:00 +6°C° 0 mm 5 mps 748 mmHg 61%

Day after tomorrow, 18 April, Sunday

Time Temperature Precipitation Wind Pressure Humidity
00:00 +5°C° 0 mm 5 mps 748 mmHg 64%
01:00 +5°C° 0 mm 4 mps 748 mmHg 67%
02:00 +4°C° 0 mm 4 mps 748 mmHg 70%
03:00 +4°C° 0 mm 4 mps 748 mmHg 73%
04:00 +3°C° 0 mm 4 mps 748 mmHg 75%
05:00 +3°C° 0 mm 4 mps 748 mmHg 78%
06:00 +4°C° 0 mm 4 mps 748 mmHg 74%
07:00 +5°C° 0 mm 4 mps 748 mmHg 70%
08:00 +6°C° 0 mm 4 mps 748 mmHg 66%
09:00 +7°C° 0 mm 5 mps 748 mmHg 61%
10:00 +8°C° 0 mm 5 mps 748 mmHg 56%
11:00 +9°C° 0 mm 5 mps 748 mmHg 52%
12:00 +10°C° 0 mm 5 mps 748 mmHg 51%
13:00 +10°C° 0 mm 5 mps 748 mmHg 50%
14:00 +11°C° 0 mm 4 mps 748 mmHg 49%
15:00 +11°C° 0 mm 4 mps 748 mmHg 49%
16:00 +11°C° 0 mm 4 mps 748 mmHg 50%
17:00 +11°C° 0 mm 4 mps 748 mmHg 50%
18:00 +9°C° 0 mm 3 mps 748 mmHg 58%
19:00 +8°C° 0 mm 3 mps 749 mmHg 66%
20:00 +6°C° 0 mm 2 mps 749 mmHg 74%
21:00 +6°C° 0 mm 2 mps 749 mmHg 77%
22:00 +6°C° 0 mm 2 mps 749 mmHg 81%
23:00 +5°C° 0 mm 2 mps 749 mmHg 84%

19 April, Monday

Time Temperature Precipitation Wind Pressure Humidity
00:00 +5°C° 0 mm 2 mps 749 mmHg 84%
01:00 +4°C° 0 mm 3 mps 749 mmHg 85%
02:00 +4°C° 0 mm 3 mps 749 mmHg 85%
03:00 +4°C° 0 mm 3 mps 749 mmHg 85%
04:00 +4°C° 0 mm 3 mps 749 mmHg 86%
05:00 +4°C° 0 mm 3 mps 749 mmHg 86%
06:00 +4°C° 0 mm 4 mps 749 mmHg 86%
07:00 +4°C° 0 mm 4 mps 749 mmHg 86%
08:00 +4°C° 0 mm 4 mps 749 mmHg 85%
09:00 +4°C° 0 mm 4 mps 749 mmHg 87%
10:00 +4°C° 0 mm 4 mps 749 mmHg 88%
11:00 +4°C° 0 mm 4 mps 749 mmHg 89%
12:00 +5°C° 0 mm 4 mps 749 mmHg 88%
13:00 +5°C° 0 mm 4 mps 749 mmHg 86%
14:00 +5°C° 0 mm 4 mps 749 mmHg 85%
15:00 +5°C° 0.1 mm 4 mps 749 mmHg 87%
16:00 +5°C° 0.1 mm 4 mps 749 mmHg 88%
17:00 +4°C° 0.1 mm 4 mps 749 mmHg 89%
18:00 +4°C° 0.1 mm 4 mps 748 mmHg 90%
19:00 +4°C° 0.1 mm 4 mps 748 mmHg 91%
20:00 +4°C° 0.1 mm 4 mps 748 mmHg 93%
21:00 +4°C° 0.1 mm 4 mps 748 mmHg 90%
22:00 +4°C° 0.1 mm 4 mps 748 mmHg 88%
23:00 +4°C° 0.1 mm 4 mps 747 mmHg 85%

20 April, Tuesday

Time Temperature Precipitation Wind Pressure Humidity
00:00 +4°C° 0 mm 4 mps 747 mmHg 84%
01:00 +4°C° 0 mm 4 mps 747 mmHg 83%
02:00 +4°C° 0 mm 4 mps 747 mmHg 81%
03:00 +3°C° 0 mm 4 mps 746 mmHg 80%
04:00 +3°C° 0 mm 4 mps 746 mmHg 79%
05:00 +3°C° 0 mm 4 mps 746 mmHg 78%
06:00 +1°C° 0 mm 4 mps 746 mmHg 82%
07:00 +1°C° 0 mm 4 mps 745 mmHg 85%
08:00 +1°C° 0 mm 4 mps 745 mmHg 89%
09:00 +2°C° 0 mm 5 mps 744 mmHg 86%
10:00 +2°C° 0 mm 5 mps 744 mmHg 83%
11:00 +3°C° 0 mm 5 mps 743 mmHg 80%
12:00 +3°C° 0 mm 5 mps 742 mmHg 82%
13:00 +2°C° 0 mm 5 mps 742 mmHg 83%
14:00 +2°C° 0 mm 6 mps 741 mmHg 85%
15:00 +2°C° 0.5 mm 6 mps 740 mmHg 87%
16:00 +2°C° 0.5 mm 6 mps 739 mmHg 89%
17:00 0°C° 0.5 mm 7 mps 738 mmHg 91%
18:00 0°C° 2.1 mm 7 mps 737 mmHg 92%
19:00 0°C° 2.1 mm 7 mps 736 mmHg 94%
20:00 0°C° 2.1 mm 7 mps 735 mmHg 96%
21:00 +2°C° 1.1 mm 6 mps 734 mmHg 95%
22:00 +2°C° 1.1 mm 6 mps 734 mmHg 94%
23:00 +3°C° 1.1 mm 6 mps 733 mmHg 94%

21 April, Wednesday

Time Temperature Precipitation Wind Pressure Humidity
00:00 +3°C° 0 mm 5 mps 733 mmHg 94%
01:00 +5°C° 0 mm 5 mps 733 mmHg 95%
02:00 +5°C° 0 mm 5 mps 732 mmHg 96%
03:00 +6°C° 0 mm 4 mps 732 mmHg 96%
04:00 +6°C° 0 mm 4 mps 731 mmHg 96%
05:00 +7°C° 0 mm 4 mps 731 mmHg 96%
06:00 +7°C° 0.3 mm 4 mps 731 mmHg 94%
07:00 +7°C° 0.3 mm 5 mps 731 mmHg 93%
08:00 +7°C° 0.3 mm 5 mps 730 mmHg 91%
09:00 +7°C° 0.8 mm 5 mps 730 mmHg 91%
10:00 +7°C° 0.8 mm 5 mps 730 mmHg 91%
11:00 +6°C° 0.8 mm 5 mps 730 mmHg 91%
12:00 +6°C° 0.2 mm 4 mps 730 mmHg 91%
13:00 +6°C° 0.2 mm 4 mps 730 mmHg 91%
14:00 +6°C° 0.2 mm 4 mps 730 mmHg 91%
15:00 +6°C° 0.1 mm 4 mps 730 mmHg 91%
16:00 +6°C° 0.1 mm 4 mps 730 mmHg 92%
17:00 +6°C° 0.1 mm 4 mps 731 mmHg 92%
18:00 +5°C° 0.3 mm 4 mps 731 mmHg 93%
19:00 +5°C° 0.3 mm 4 mps 731 mmHg 94%
20:00 +5°C° 0.3 mm 4 mps 732 mmHg 95%
21:00 +4°C° 0.4 mm 4 mps 732 mmHg 95%
22:00 +4°C° 0.4 mm 4 mps 733 mmHg 95%
23:00 +4°C° 0.4 mm 4 mps 733 mmHg 95%
Show more